Weather History for Warrensburg, MO

Change the Weather History Date:

Wednesday, April 17, 2013

  Actual Average (KSZL) Record (KSZL)
Temperature  
Mean Temperature 52 °F -  
Max Temperature 60 °F 64 °F 86 °F (2002)
Min Temperature 44 °F 45 °F 30 °F (1997)
Degree Days  
Heating Degree Days 13    
Growing Degree Days 2 (Base 50)    
Moisture  
Dew Point 49 °F    
Average Humidity 91    
Maximum Humidity 100    
Minimum Humidity 81    
Precipitation  
Precipitation 0.04 in - - ()
Sea Level Pressure  
Sea Level Pressure 29.83 in    
Wind  
Wind Speed 8 mph (NNE)    
Max Wind Speed 14 mph    
Max Gust Speed 21 mph    
Visibility 6 miles    
Events Fog , Rain , Thunderstorm    
Averages and records for this station are not official NWS values.
T = Trace of Precipitation, MM = Missing Value Source: NWS Daily Summary

Daily Weather History Graph

Daily Weather History Graph

Search for Another Location

Airport:

Trip Planner

Search our weather history database for the weather conditions in past years. The results will help you decide how hot, cold, wet, or windy it might be!

Date:

Astronomy

Apr. 17, 2013 Rise Set
Actual Time 6:35 AM CDT 7:54 PM CDT
Civil Twilight 6:07 AM CDT 8:22 PM CDT
Nautical Twilight 5:34 AM CDT 8:55 PM CDT
Astronomical Twilight 5:00 AM CDT 9:30 PM CDT
Moon 11:51 AM CDT (4/17) 1:31 AM CDT (4/17)
Length of Visible Light 14h 14m
Length of Day
13h 18m
Waxing Crescent, 42% of the Moon is Illuminated
Apr 17
Waxing Crescent
Apr 18
First Quarter
Apr 25
Full
May 2
Last Quarter
May 9
New

Hourly Weather History & Observations

Time (CDT) Temp. Windchill Dew Point Humidity Pressure Visibility Wind Dir Wind Speed Gust Speed Precip Events Conditions
12:15 AM 44.6 °F 39.2 °F 39.2 °F 81% 30.07 in 10.0 mi NE 10.4 mph - N/A   Overcast
12:35 AM 44.6 °F 39.7 °F 39.2 °F 81% 30.07 in 10.0 mi NE 9.2 mph 16.1 mph 0.01 in   Overcast
12:55 AM 44.6 °F 38.8 °F 39.2 °F 81% 30.08 in 10.0 mi NE 11.5 mph - 0.01 in   Overcast
1:15 AM 44.6 °F 39.2 °F 39.2 °F 81% 30.07 in 10.0 mi NE 10.4 mph - N/A   Overcast
1:35 AM 44.6 °F 40.2 °F 41.0 °F 87% 30.07 in 10.0 mi NE 8.1 mph - N/A   Overcast
1:55 AM 44.6 °F 39.7 °F 41.0 °F 87% 30.06 in 10.0 mi NE 9.2 mph - N/A   Overcast
2:15 AM 44.6 °F 39.7 °F 41.0 °F 87% 30.05 in 10.0 mi NE 9.2 mph - N/A   Overcast
2:35 AM 46.4 °F 41.5 °F 41.0 °F 81% 30.04 in 10.0 mi ENE 10.4 mph 16.1 mph N/A   Overcast
2:55 AM 46.4 °F 41.9 °F 41.0 °F 81% 30.02 in 10.0 mi East 9.2 mph - N/A   Overcast
3:15 AM 46.4 °F 40.7 °F 41.0 °F 81% 30.01 in 10.0 mi ENE 12.7 mph 17.3 mph N/A   Overcast
3:35 AM 46.4 °F 40.7 °F 41.0 °F 81% 30.00 in 10.0 mi East 12.7 mph - N/A   Overcast
3:55 AM 46.4 °F 41.5 °F 42.8 °F 87% 30.00 in 10.0 mi East 10.4 mph 18.4 mph N/A   Overcast
4:15 AM 46.4 °F 41.9 °F 42.8 °F 87% 29.99 in 10.0 mi East 9.2 mph - N/A   Overcast
4:35 AM 46.4 °F 41.1 °F 42.8 °F 87% 29.97 in 10.0 mi East 11.5 mph - N/A   Overcast
4:55 AM 46.4 °F 40.7 °F 42.8 °F 87% 29.95 in 7.0 mi East 12.7 mph 17.3 mph N/A   Overcast
5:15 AM 46.4 °F 42.4 °F 42.8 °F 87% 29.96 in 7.0 mi East 8.1 mph - N/A   Overcast
5:35 AM 46.4 °F 42.9 °F 42.8 °F 87% 29.96 in 5.0 mi East 6.9 mph - N/A   Overcast
5:55 AM 44.6 °F 40.7 °F 42.8 °F 93% 29.96 in 4.0 mi ENE 6.9 mph - N/A   Overcast
6:15 AM 44.6 °F 40.2 °F 44.6 °F 100% 29.96 in 2.5 mi ENE 8.1 mph - N/A   Overcast
6:35 AM 46.4 °F 41.5 °F 44.6 °F 93% 29.95 in 1.2 mi East 10.4 mph - N/A   Overcast
6:55 AM 46.4 °F 41.5 °F 44.6 °F 93% 29.95 in 0.5 mi East 10.4 mph - N/A Fog Fog
7:15 AM 46.4 °F 41.9 °F 44.6 °F 93% 29.93 in 0.5 mi East 9.2 mph - 0.01 in Fog Fog
7:35 AM 46.4 °F 42.4 °F 44.6 °F 93% 29.93 in 0.5 mi East 8.1 mph - 0.01 in Fog Fog
7:55 AM 46.4 °F 42.9 °F 44.6 °F 93% 29.93 in 0.5 mi ESE 6.9 mph - 0.01 in Fog Fog
8:15 AM 48.2 °F - 46.4 °F 93% 29.93 in 0.5 mi East 8.1 mph - N/A Fog Fog
8:35 AM 48.2 °F - 46.4 °F 93% 29.92 in 0.5 mi East 8.1 mph - N/A Fog Fog
8:55 AM 50.0 °F - 46.4 °F 87% 29.90 in 0.5 mi East 6.9 mph - N/A Fog Fog
9:15 AM 50.0 °F - 48.2 °F 94% 29.90 in 1.0 mi East 3.5 mph - N/A   Overcast
9:35 AM 51.8 °F - 50.0 °F 94% 29.90 in 1.5 mi ENE 3.5 mph - N/A   Overcast
9:55 AM 51.8 °F - 50.0 °F 94% 29.89 in 2.5 mi Calm Calm - N/A   Overcast
10:15 AM 51.8 °F - 51.8 °F 100% 29.89 in 3.0 mi NNW 3.5 mph - N/A   Overcast
10:35 AM 53.6 °F - 51.8 °F 94% 29.87 in 3.0 mi NE 4.6 mph - N/A Thunderstorm Overcast
10:55 AM 53.6 °F - 53.6 °F 100% 29.87 in 4.0 mi NE 5.8 mph - N/A Thunderstorm Overcast
11:15 AM 55.4 °F - 53.6 °F 94% 29.86 in 5.0 mi NE 3.5 mph - N/A Thunderstorm Overcast
11:35 AM 55.4 °F - 53.6 °F 94% 29.84 in 5.0 mi NE 5.8 mph - N/A Thunderstorm Overcast
11:55 AM 59.0 °F - 55.4 °F 88% 29.83 in 7.0 mi Calm Calm - N/A Thunderstorm Thunderstorm
12:15 PM 60.8 °F - 59.0 °F 94% 29.82 in 7.0 mi NNE 4.6 mph - N/A Thunderstorm Mostly Cloudy
12:35 PM 60.8 °F - 57.2 °F 88% 29.82 in 10.0 mi NNW 6.9 mph - N/A Thunderstorm Overcast
12:55 PM 59.0 °F - 55.4 °F 88% 29.80 in 7.0 mi North 5.8 mph - N/A Thunderstorm Overcast
1:15 PM 59.0 °F - 55.4 °F 88% 29.80 in 7.0 mi NNW 10.4 mph - 0.01 in Thunderstorm Thunderstorm
1:35 PM 55.4 °F - 53.6 °F 94% 29.76 in 5.0 mi North 12.7 mph - 0.01 in Thunderstorm Overcast
1:55 PM 55.4 °F - 53.6 °F 94% 29.76 in 5.0 mi NNE 9.2 mph - 0.01 in Thunderstorm Overcast
2:15 PM 53.6 °F - 51.8 °F 94% 29.79 in 5.0 mi WNW 13.8 mph 17.3 mph N/A Thunderstorm Overcast
2:35 PM 53.6 °F - 51.8 °F 94% 29.74 in 4.0 mi North 8.1 mph - N/A Thunderstorm Overcast
2:55 PM 53.6 °F - 51.8 °F 94% 29.75 in 5.0 mi NNW 8.1 mph - N/A Rain , Thunderstorm Light Thunderstorms and Rain
3:35 PM 53.6 °F - 51.8 °F 94% 29.72 in 4.0 mi North 6.9 mph - N/A Rain , Thunderstorm Light Thunderstorms and Rain
3:55 PM 55.4 °F - 53.6 °F 94% 29.71 in 5.0 mi WNW 3.5 mph - N/A   Mostly Cloudy
4:15 PM 55.4 °F - 53.6 °F 94% 29.70 in 7.0 mi NNW 3.5 mph - N/A   Overcast
4:35 PM 55.4 °F - 53.6 °F 94% 29.70 in 10.0 mi Calm Calm - N/A   Overcast
4:55 PM 55.4 °F - 55.4 °F 100% 29.69 in 10.0 mi Calm Calm - N/A Thunderstorm Overcast
5:35 PM 57.2 °F - 55.4 °F 94% 29.67 in 10.0 mi NNW 6.9 mph - N/A   Overcast
5:55 PM 59.0 °F - 55.4 °F 88% 29.67 in 10.0 mi NNW 5.8 mph - N/A Thunderstorm Overcast
6:15 PM 59.0 °F - 55.4 °F 88% 29.67 in 10.0 mi North 3.5 mph - N/A   Overcast
6:35 PM 59.0 °F - 55.4 °F 88% 29.66 in 10.0 mi Calm Calm - N/A   Overcast
6:55 PM 59.0 °F - 55.4 °F 88% 29.64 in 5.0 mi NNE 4.6 mph - N/A   Overcast
7:15 PM 57.2 °F - 55.4 °F 94% 29.64 in 5.0 mi Calm Calm - N/A Rain , Thunderstorm Light Thunderstorms and Rain
7:35 PM 55.4 °F - 55.4 °F 100% 29.63 in 7.0 mi NNE 6.9 mph - N/A Thunderstorm Thunderstorm
7:55 PM 55.4 °F - 53.6 °F 94% 29.63 in 7.0 mi North 5.8 mph - N/A Thunderstorm Overcast
8:15 PM 55.4 °F - 53.6 °F 94% 29.64 in 10.0 mi NNW 9.2 mph - N/A   Overcast
8:35 PM 55.4 °F - 53.6 °F 94% 29.65 in 10.0 mi NNW 9.2 mph - N/A Thunderstorm Overcast
8:55 PM 53.6 °F - 51.8 °F 94% 29.64 in 10.0 mi NNE 6.9 mph - N/A Thunderstorm Thunderstorm
9:15 PM 53.6 °F - 51.8 °F 94% 29.64 in 10.0 mi NNW 9.2 mph - N/A Rain , Thunderstorm Light Thunderstorms and Rain
9:35 PM 53.6 °F - 51.8 °F 94% 29.64 in 10.0 mi North 5.8 mph - N/A Thunderstorm Overcast
9:55 PM 53.6 °F - 51.8 °F 94% 29.65 in 5.0 mi NW 6.9 mph - N/A Rain , Thunderstorm Light Thunderstorms and Rain
10:15 PM 51.8 °F - 50.0 °F 94% 29.65 in 7.0 mi NW 6.9 mph - N/A Rain , Thunderstorm Thunderstorms and Rain
10:35 PM 51.8 °F - 50.0 °F 94% 29.69 in 5.0 mi NW 11.5 mph 20.7 mph N/A Rain , Thunderstorm Heavy Thunderstorms and Rain
10:55 PM 50.0 °F - 46.4 °F 87% 29.63 in 10.0 mi NNW 10.4 mph - N/A Rain , Thunderstorm Light Thunderstorms and Rain
11:15 PM 48.2 °F - 46.4 °F 93% 29.68 in 10.0 mi WNW 11.5 mph - 0.01 in Thunderstorm Unknown
11:35 PM 48.2 °F - 46.4 °F 93% 29.64 in 3.0 mi NNW 10.4 mph - 0.01 in Rain , Thunderstorm Light Thunderstorms and Rain
11:55 PM 48.2 °F - 46.4 °F 93% 29.68 in 10.0 mi Calm Calm - 0.01 in Rain , Thunderstorm Light Thunderstorms and Rain